C/2017 T3 ( ATLAS )

Japanese version
Home page
Updated on October 30, 2017

---------------------------------------------------------------------

* Profile

Discovery Date October 14, 2017
Magnitude 18.3 mag
Discoverer Asteroid Terrestrial-impact Last Alert System (ATLAS) search program

* Orbital Elements

Epoch 2018 July 21.0 TT = JDT 2458320.5
T 2018 July 19.14132 TT                                 MPCW
q   0.8254088            (2000.0)            P               Q
z  +0.0008544      Peri.  246.88755     +0.22843518     -0.59999011
 +/-0.0001770      Node   230.09610     +0.65986119     -0.48361719
e   0.9992948      Incl.   88.10118     -0.71582161     -0.63728038
From 128 observations 2017 Sept. 11-Oct. 27, mean residual 0".5.

* Finding Charts

* Magnitudes Graph

        m1 = 9.0 + 5 log d + 10.0 log r

---------------------------------------------------------------------

The orbital elements are published on M.P.E.C. 2017-U238.
The charts are made with StellaNavigator Ver.10 (AstroArts).
The magnitudes graphs are made with Comet for Windows.

---------------------------------------------------------------------

Copyright(C) Seiichi Yoshida (comet@aerith.net). All rights reserved.